This demonstration page uses our WeatherBlox Daily Observations layout. Learn more.

Left ArrowRight Arrow

Hourly Observations for January 12, 2019

Temp ( °F °C ) Dew Point ( °F °C ) Humidity (%) Winds ( mph kmh ) Pressure ( in mb ) Visibility ( mi km ) Precip ( " mm )
12:51 am 00:51 Clear 37 2.8 36 2.2 96 96 E 8 13 30.09 1019 10 16 N/A
1:51 am 01:51 Clear 39 3.9 37 2.8 93 93 E 7 11 30.09 1019 10 16 N/A
2:51 am 02:51 Clear 35 1.7 34 1.1 96 96 WSW 5 7 30.09 1019 10 16 N/A
3:51 am 03:51 Clear 33 0.6 31 -0.6 92 92 N N/A 30.09 1019 10 16 N/A
4:51 am 04:51 Clear 33 0.6 31 -0.6 92 92 NNE 3 6 30.09 1019 10 16 N/A
5:51 am 05:51 Clear 33 0.6 31 -0.6 92 92 SE 6 9 30.13 1020 10 16 N/A
6:51 am 06:51 Clear 36 2.2 29 -1.7 76 76 ESE 12 19 30.13 1020 10 16 N/A
7:51 am 07:51 Sunny 38 3.3 28 -2.2 68 68 ESE 9 15 30.13 1020 10 16 N/A
8:51 am 08:51 Sunny 42 5.6 28 -2.2 58 58 SE 13 20 30.15 1021 10 16 N/A
9:51 am 09:51 Sunny 46 7.8 29 -1.7 51 51 ESE 15 24 30.16 1021 10 16 N/A
10:51 am 10:51 Sunny 51 10.6 29 -1.7 43 43 E 12 19 30.15 1021 10 16 N/A
11:51 am 11:51 Sunny 53 11.7 30 -1.1 41 41 SE 8 13 30.11 1020 10 16 N/A
12:51 pm 12:51 Sunny 56 13.3 32 undefined 40 40 ESE 9 15 30.06 1018 10 16 N/A
1:51 pm 13:51 Sunny 57 13.9 32 undefined 39 39 E 10 17 30.02 1017 10 16 N/A
2:51 pm 14:51 Sunny 60 15.6 32 undefined 35 35 ESE 8 13 30.02 1017 10 16 N/A
3:51 pm 15:51 Sunny 59 15 32 undefined 36 36 SE 9 15 30.02 1017 10 16 N/A
4:51 pm 16:51 Sunny 58 14.4 32 undefined 38 38 E 13 20 30.01 1016 10 16 N/A
5:51 pm 17:51 Clear 54 12.2 34 1.1 47 47 E 9 15 30.02 1017 10 16 N/A
6:51 pm 18:51 Partly Cloudy 53 11.7 33 0.6 47 47 E 10 17 30.02 1017 10 16 N/A
7:51 pm 19:51 Cloudy 53 11.7 35 1.7 51 51 ESE 10 17 30.03 1017 10 16 N/A
8:51 pm 20:51 Cloudy 49 9.4 40 4.4 71 71 ESE 6 9 30.03 1017 10 16 N/A
9:51 pm 21:51 Cloudy 49 9.4 40 4.4 71 71 E 10 17 30.03 1017 10 16 N/A
10:51 pm 22:51 Partly Cloudy 48 8.9 37 2.8 66 66 E 10 17 30.01 1016 10 16 N/A
11:51 pm 23:51 Mostly Cloudy 50 10 35 1.7 57 57 E 16 26 29.98 1015 10 16 N/A

Powered by AerisWeather